Location: Elende
(51.4317°N, 10.6316°E)
Time: 11:22:05
(UTC+00:00)

In-Cosmos 22 - Visible Passes

Search period start: 16 January 2021 00:00
Search period end: 26 January 2021 00:00
Orbit: 784 x 877 km, 81.2° (Epoch: 16 January)

Date Brightness Start Highest point End Pass type
(mag) Time Alt. Az. Time Alt. Az. Time Alt. Az.
16 Jan 4.7 16:56:50 10° SSW 17:02:16 60° WNW 17:07:37 10° N visible
16 Jan 6.9 18:43:49 10° WNW 18:45:59 12° NW 18:48:09 10° NNW visible
17 Jan 4.4 16:38:48 10° SSW 16:44:17 72° WNW 16:49:40 10° N visible
17 Jan 6.8 18:24:57 10° W 18:27:49 14° NW 18:30:41 10° NNW visible
18 Jan 4.2 16:20:49 10° SSW 16:26:18 85° WNW 16:31:42 10° NNE visible
18 Jan 6.7 18:06:16 10° W 18:09:41 17° NW 18:13:04 10° NNW visible
19 Jan 6.5 17:47:43 10° WSW 17:51:33 19° WNW 17:55:22 10° NNW visible
20 Jan 6.4 17:29:15 10° WSW 17:33:26 22° WNW 17:37:36 10° N visible
21 Jan 6.1 17:10:52 10° WSW 17:15:21 26° WNW 17:19:48 10° N visible
22 Jan 5.9 16:52:32 10° SW 16:57:16 30° WNW 17:01:57 10° N visible
23 Jan 5.7 16:34:16 10° SW 16:39:12 35° WNW 16:44:06 10° N visible
